OH6HPS Weather Reports


time (UTC)temp
C
wind
direction
speed
KPH
gust
KPH
rain 1hr
cm
rain 24hr
cm
rain mn
cm
humidity
%
barometer
mb
20260507093604 13 86 3.2 9.7 0.00 0.00 0.00 24 1015.0
20260507092603 13 220 3.2 11.3 0.00 0.00 0.00 26 1015.0
20260507091604 13 214 3.2 14.5 0.00 0.00 0.00 24 1015.0
20260507090603 13 252 1.6 9.7 0.00 0.00 0.00 27 1015.1
20260507085603 12 159 6.4 14.5 0.00 0.00 0.00 27 1015.1
20260507084603 13 166 3.2 11.3 0.00 0.00 0.00 27 1015.2
20260507083604 12 151 4.8 14.5 0.00 0.00 0.00 27 1015.2
20260507082603 13 162 8.0 14.5 0.00 0.00 0.00 25 1015.2
20260507081602 13 188 4.8 8.0 0.00 0.00 0.00 27 1015.3
20260507080602 12 175 6.4 11.3 0.00 0.00 0.00 30 1015.3
20260507075601 12 231 3.2 9.7 0.00 0.00 0.00 31 1015.3
20260507074601 12 118 4.8 9.7 0.00 0.00 0.00 30 1015.3
20260507073602 11 226 4.8 8.0 0.00 0.00 0.00 27 1015.3
20260507072601 11 158 0.0 8.0 0.00 0.00 0.00 31 1015.4
20260507071559 11 69 1.6 8.0 0.00 0.00 0.00 33 1015.4
20260507070601 11 164 4.8 6.4 0.00 0.00 0.00 34 1015.4
20260507065600 11 69 3.2 8.0 0.00 0.00 0.00 35 1015.4
20260507064600 11 183 3.2 9.7 0.00 0.00 0.00 36 1015.4
20260507063559 10 90 0.0 6.4 0.00 0.00 0.00 40 1015.4
20260507062600 10 87 3.2 8.0 0.00 0.00 0.00 40 1015.4
20260507061600 9 62 3.2 6.4 0.00 0.00 0.00 42 1015.4
20260507060559 8 110 3.2 8.0 0.00 0.00 0.00 42 1015.3
20260507055559 8 94 6.4 8.0 0.00 0.00 0.00 42 1015.2
20260507054559 8 90 4.8 8.0 0.00 0.00 0.00 43 1015.3
20260507053558 8 79 3.2 8.0 0.00 0.00 0.00 44 1015.3
20260507052559 7 149 3.2 8.0 0.00 0.00 0.00 46 1015.2
20260507051559 6 96 3.2 8.0 0.00 0.00 0.00 47 1015.3
20260507050558 6 114 4.8 6.4 0.00 0.00 0.00 48 1015.3
20260507045558 6 114 6.4 11.3 0.00 0.00 0.00 49 1015.3
20260507044558 5 104 6.4 8.0 0.00 0.00 0.00 51 1015.3
20260507043557 4 118 3.2 6.4 0.00 0.00 0.00 55 1015.3
20260507042557 3 96 3.2 6.4 0.00 0.00 0.00 60 1015.3
20260507041556 2 104 3.2 8.0 0.00 0.00 0.00 65 1015.3
20260507040557 1 104 4.8 8.0 0.00 0.00 0.00 67 1015.3
20260507035556 0 93 3.2 6.4 0.00 0.00 0.00 74 1015.2
20260507034556 -1 69 1.6 6.4 0.00 0.00 0.00 78 1015.2
20260507033555 -2 86 3.2 6.4 0.00 0.00 0.00 81 1015.2
20260507032555 -3 235 0.0 3.2 0.00 0.00 0.00 81 1015.2
20260507031555 -3 235 0.0 3.2 0.00 0.00 0.00 80 1015.0
20260507030555 -3 235 0.0 0.0 0.00 0.00 0.00 81 1015.0
20260507025554 -3 235 0.0 0.0 0.00 0.00 0.00 80 1015.0
20260507024554 -3 235 0.0 0.0 0.00 0.00 0.00 80 1015.0
20260507023554 -3 235 0.0 0.0 0.00 0.00 0.00 80 1015.1
20260507022554 -3 235 0.0 1.6 0.00 0.00 0.00 81 1015.1
20260507021553 -3 259 0.0 0.0 0.00 0.00 0.00 80 1015.0
20260507020553 -3 259 0.0 0.0 0.00 0.00 0.00 81 1015.1
20260507015553 -3 259 0.0 0.0 0.00 0.00 0.00 80 1015.0
20260507014553 -3 259 0.0 1.6 0.00 0.00 0.00 80 1015.1
20260507013552 -3 259 0.0 0.0 0.00 0.00 0.00 80 1014.9
20260507012605 -3 259 0.0 0.0 0.00 0.00 0.00 79 1014.9
20260507011552 -3 259 0.0 0.0 0.00 0.00 0.00 79 1014.8
20260507010551 -3 259 0.0 0.0 0.00 0.00 0.00 79 1014.7
20260507005551 -3 259 0.0 0.0 0.00 0.00 0.00 78 1014.7
20260507004551 -3 259 0.0 1.6 0.00 0.00 0.00 77 1014.7
20260507003551 -3 259 0.0 0.0 0.00 0.00 0.00 77 1014.6
20260507002550 -2 259 0.0 1.6 0.00 0.00 0.00 77 1014.5
20260507001550 -2 259 0.0 0.0 0.00 0.00 0.00 77 1014.4
20260507000551 -2 259 0.0 0.0 0.00 0.00 0.00 76 1014.3
20260506235550 -2 259 0.0 1.6 0.00 0.00 0.00 76 1014.2
20260506234549 -2 259 0.0 1.6 0.00 0.00 0.00 76 1014.3
20260506233549 -2 259 0.0 0.0 0.00 0.00 0.00 76 1014.1
20260506232549 -2 259 0.0 0.0 0.00 0.00 0.00 76 1014.1
20260506231549 -2 259 0.0 0.0 0.00 0.00 0.00 76 1014.2
20260506230548 -2 259 0.0 0.0 0.00 0.00 0.00 75 1014.2
20260506225548 -2 259 0.0 0.0 0.00 0.00 0.00 74 1014.3
20260506224548 -1 259 0.0 0.0 0.00 0.00 0.00 74 1014.3
20260506223548 -1 259 0.0 0.0 0.00 0.00 0.00 74 1014.3
20260506222546 -1 259 0.0 0.0 0.00 0.00 0.00 74 1014.3
20260506221547 -1 259 0.0 0.0 0.00 0.00 0.00 74 1014.3
20260506220547 -1 259 0.0 0.0 0.00 0.00 0.00 73 1014.2
20260506215547 -1 259 0.0 0.0 0.00 0.00 0.00 73 1014.2
20260506214546 -1 259 0.0 0.0 0.00 0.00 0.00 73 1014.2
20260506213546 0 259 0.0 0.0 0.00 0.00 0.00 71 1014.1
20260506212547 0 259 0.0 0.0 0.00 0.00 0.00 70 1014.1
20260506211547 0 259 0.0 0.0 0.00 0.00 0.00 70 1014.1
20260506210546 0 259 0.0 0.0 0.00 0.00 0.00 69 1014.1
20260506205546 0 259 0.0 0.0 0.00 0.00 0.00 68 1013.9
20260506204546 0 259 0.0 0.0 0.00 0.00 0.00 67 1013.9
20260506203544 0 259 0.0 0.0 0.00 0.00 0.00 67 1013.9
20260506202544 1 259 0.0 0.0 0.00 0.00 0.00 67 1013.9
20260506201545 1 259 0.0 0.0 0.00 0.00 0.00 65 1014.0
20260506200544 1 259 0.0 0.0 0.00 0.00 0.00 64 1014.1
20260506195545 2 259 0.0 0.0 0.00 0.00 0.00 63 1014.1
20260506194543 2 259 0.0 0.0 0.00 0.00 0.00 61 1014.1
20260506193544 3 259 0.0 0.0 0.00 0.00 0.00 59 1014.0
20260506192543 3 259 0.0 0.0 0.00 0.00 0.00 57 1014.0
20260506191543 4 259 0.0 0.0 0.00 0.00 0.00 54 1013.9
20260506190543 5 259 0.0 1.6 0.00 0.00 0.00 51 1013.9
20260506185542 5 259 0.0 0.0 0.00 0.00 0.00 51 1013.8
20260506184542 5 259 0.0 1.6 0.00 0.00 0.00 48 1013.6
20260506183544 6 259 0.0 4.8 0.00 0.00 0.00 45 1013.5
20260506182540 6 259 0.0 4.8 0.00 0.00 0.00 46 1013.5
20260506181541 7 262 0.0 3.2 0.00 0.00 0.00 44 1013.4
20260506180542 7 262 1.6 3.2 0.00 0.00 0.00 43 1013.4
20260506175541 8 262 1.6 6.4 0.00 0.00 0.00 38 1013.3
20260506174541 9 209 1.6 3.2 0.00 0.00 0.00 36 1013.2
20260506173541 10 209 1.6 4.8 0.00 0.00 0.00 29 1013.2
20260506172540 10 234 1.6 4.8 0.00 0.00 0.00 29 1013.2
20260506171540 10 230 1.6 9.7 0.00 0.00 0.00 28 1013.2
20260506170540 10 1 3.2 9.7 0.00 0.00 0.00 28 1013.2
20260506165540 10 269 1.6 8.0 0.00 0.00 0.00 27 1013.3
20260506164539 11 282 3.2 6.4 0.00 0.00 0.00 27 1013.2
20260506163540 11 261 4.8 8.0 0.00 0.00 0.00 29 1013.1
20260506162538 11 65 1.6 4.8 0.00 0.00 0.00 25 1013.1
20260506161538 12 248 6.4 9.7 0.00 0.00 0.00 26 1013.0
20260506160538 12 278 3.2 8.0 0.00 0.00 0.00 27 1013.0
20260506155538 12 228 1.6 11.3 0.00 0.00 0.00 26 1013.1
20260506154538 12 72 3.2 9.7 0.00 0.00 0.00 27 1013.0
20260506153538 12 92 4.8 14.5 0.00 0.00 0.00 25 1013.0
20260506152537 12 62 3.2 11.3 0.00 0.00 0.00 26 1013.0
20260506151537 12 241 3.2 14.5 0.00 0.00 0.00 26 1013.0
20260506150538 12 283 4.8 17.7 0.00 0.00 0.00 25 1012.9
20260506145535 12 217 1.6 9.7 0.00 0.00 0.00 26 1013.0
20260506144537 13 257 3.2 11.3 0.00 0.00 0.00 26 1013.1
20260506143537 12 285 9.7 16.1 0.00 0.00 0.00 27 1013.1
20260506142536 13 100 4.8 14.5 0.00 0.00 0.00 25 1013.1
20260506141536 12 0 4.8 8.0 0.00 0.00 0.00 26 1013.0
20260506140535 12 221 6.4 16.1 0.00 0.00 0.00 26 1013.0
20260506135535 12 283 9.7 17.7 0.00 0.00 0.00 26 1012.9
20260506134535 13 272 9.7 14.5 0.00 0.00 0.00 26 1013.0
20260506133536 13 230 6.4 14.5 0.00 0.00 0.00 26 1013.1
20260506132534 13 72 3.2 16.1 0.00 0.00 0.00 24 1013.1
20260506131534 13 212 4.8 20.9 0.00 0.00 0.00 24 1013.0
20260506130534 13 186 8.0 16.1 0.00 0.00 0.00 25 1013.0
20260506125535 13 237 8.0 19.3 0.00 0.00 0.00 25 1012.9
20260506124533 13 214 8.0 17.7 0.00 0.00 0.00 25 1013.0
20260506123533 13 219 8.0 17.7 0.00 0.00 0.00 26 1013.0
20260506122532 13 275 11.3 17.7 0.00 0.00 0.00 32 1013.0
20260506121533 12 219 4.8 14.5 0.00 0.00 0.00 31 1012.9
20260506120533 12 82 6.4 19.3 0.00 0.00 0.00 28 1012.9
20260506115533 12 282 8.0 14.5 0.00 0.00 0.00 31 1013.0
20260506114533 11 69 6.4 11.3 0.00 0.00 0.00 31 1013.0
20260506113533 12 216 3.2 16.1 0.00 0.00 0.00 27 1013.0
20260506112531 12 86 8.0 17.7 0.00 0.00 0.00 30 1013.0
20260506111531 12 231 6.4 14.5 0.00 0.00 0.00 30 1013.0
20260506110531 12 275 4.8 17.7 0.00 0.00 0.00 32 1012.9
20260506105531 12 255 9.7 19.3 0.00 0.00 0.00 32 1013.0
20260506104530 11 204 11.3 20.9 0.00 0.00 0.00 33 1012.9
20260506103529 10 216 8.0 16.1 0.00 0.00 0.00 37 1012.9
20260506102531 11 206 3.2 16.1 0.00 0.00 0.00 36 1012.9
20260506101530 11 244 9.7 19.3 0.00 0.00 0.00 36 1012.8
20260506095530 11 59 6.4 24.1 0.00 0.00 0.00 36 1012.9
20260506094529 11 244 8.0 14.5 0.00 0.00 0.00 35 1012.7